Погода в Пушкине

Россия / Липецкая область     52°19′52″N   40°21′55″E
темп.,
°C
ветер,
м/с
пор.,
м/с
влажн.,
%
обл.,
%
осадки,
мм/ч
давл.,
гПа
погр.,
м
18 января, вт
вт1800:00−1ююз71497100 1.0 995913
03:000ююз61298100 2.3 994801
06:000ююз61098100 0.9 993630
09:00−1ююз51197100 2.2 995557
12:00−1ююз5997100 0.4 997540
15:00−1ююз359799 0.8 999393
18:00−3зюз2498100 0.4 100365
21:00−6зюз1197100 0.5 100616
19 января, ср
ср1900:00−8зюз2297100 0.0 101017
03:00−9сз349986 0.1 101255
06:00−7с5995100 0.3 1014299
09:00−9с5995100 0.9 1016317
12:00−9с489390 0.4 1018278
15:00−11ссз359519 0.4 1019129
18:00−18ссз2210066 0.0 102110
21:00−21ссв1110084 0.0 10229
20 января, чт
чт2000:00
03:00−22ююз2210076 0.0 102214
06:00−22ююз2210099 0.0 102224
09:00
12:00−12ю4119568 0.0 1020259
15:00−11ю5129363 0.0 1019328
18:00−12ю5139565 0.0 1019261
21:00−12ю6149683 0.0 1018285
21 января, пт
пт2100:00−11ю6159696 0.0 1018320
03:00−11ююв6159585 0.0 1017321
06:00−9ююв71693100 0.0 1015386
09:00−6ююв81791100 0.1 1014618
12:00−4ююв91795100 0.9 1012722
15:00−3ююв81695100 2.1 1010755
18:00−2ююв81696100 1.6 1009761
21:00−1ююз71297100 2.8 1009772
22 января, сб
сб2200:00−8ю35945 0.7 101260
03:00−11ю389761 0.7 101492
06:00−13ю359990 0.0 101558
09:00−14ю35100100 0.0 101653
12:00−7ю24965 0.0 1017121
15:00−6юв1196100 0.0 101720
18:00−9вюв1198100 0.0 101810
21:00−11ссв1199100 0.0 102010